• MPC Preparation (Info)

  • MPEC 2023-T64 : 2023 TT1

    The following Minor Planet Electronic Circular may be linked-to from your own Web pages, but must not otherwise be redistributed electronically.

    A form allowing access to any MPEC is at the bottom of this page.


    Read MPEC 2023-T63 Read MPEC 2023-T65


    M.P.E.C. 2023-T64                               Issued 2023 October 7, 01:00 UT
    
         The Minor Planet Electronic Circulars contain information on unusual
             minor planets, routine data on comets and natural satellites,
             and occasional editorial announcements.  They are published
        on behalf of Division F of the International Astronomical Union by the
              Minor Planet Center, Smithsonian Astrophysical Observatory,
                              Cambridge, MA 02138, U.S.A.
    			  
                 Prepared using the Tamkin Foundation Computer Network
    
                                  MPC@CFA.HARVARD.EDU
                URL https://www.minorplanetcenter.net/    ISSN 1523-6714
    
                                    2023 TT1                                 
    
    
    Observations:
         K23T01T* C2023 10 04.49508100 59 44.451+07 11 34.89         19.96iXET064F52
         K23T01T  C2023 10 04.51845300 59 38.836+07 10 56.54         19.79iXET064F52
         K23T01T  C2023 10 04.53011200 59 36.012+07 10 37.20         20.06iXET064F52
         K23T01T KB2023 10 05.01172700 57 43.36 +06 56 56.0          19.3 GVET064I93
         K23T01T KB2023 10 05.02422200 57 40.20 +06 56 34.6          20.5 GVET064I93
         K23T01T KB2023 10 05.03645700 57 37.08 +06 56 13.2          19.3 GVET064I93
         K23T01T KC2023 10 05.04792400 57 33.91 +06 55 53.0          20.0 GVET064L01
         K23T01T KC2023 10 05.05107900 57 33.12 +06 55 47.3          19.9 GVET064L01
         K23T01T KC2023 10 05.05297200 57 32.62 +06 55 43.9          20.1 GVET064L01
         K23T01T KC2023 10 05.21744800 56 54.08 +06 51 01.3          20.2 GXET064858
         K23T01T  C2023 10 05.22363300 56 52.809+06 50 50.43         19.9 GVET064654
         K23T01T KC2023 10 05.22446100 56 52.28 +06 50 49.2          19.7 GXET064858
         K23T01T  C2023 10 05.22764200 56 51.782+06 50 43.41         19.9 GVET064654
         K23T01T KC2023 10 05.23128100 56 50.52 +06 50 37.0          19.6 GXET064858
         K23T01T 1C2023 10 05.30529500 56 31.574+06 48 27.40         19.76GVET064G96
         K23T01T 1C2023 10 05.31093700 56 30.124+06 48 17.46         19.55GVET064G96
         K23T01T 1C2023 10 05.31656600 56 28.655+06 48 07.34         19.75GVET064G96
         K23T01T 1C2023 10 05.32221200 56 27.193+06 47 57.37         19.68GVET064G96
         K23T01T  C2023 10 05.35451200 56 19.002+06 46 58.86         19.9 GVET064654
         K23T01T  C2023 10 05.35852200 56 17.966+06 46 51.55         19.9 GVET064654
         K23T01T  C2023 10 05.59152200 55 17.822+06 39 55.74         19.77GVET064F51
         K23T01T  C2023 10 05.59216400 55 17.653+06 39 54.58         19.80GVET064F51
         K23T01T KB2023 10 05.87959 00 54 05.97 +06 30 49.8          19.8 VZET064C95
         K23T01T KB2023 10 05.89181 00 54 02.65 +06 30 27.2          19.7 VZET064C95
         K23T01T KB2023 10 05.90402 00 53 59.33 +06 30 04.1          20.5 VZET064C95
         K23T01T KB2023 10 06.88815 00 49 27.28 +05 57 23.3          19.3 GXET064M45
         K23T01T KB2023 10 06.89478 00 49 25.30 +05 57 09.6          18.9 GXET064M45
         K23T01T KB2023 10 06.90117 00 49 23.37 +05 56 55.8          19.1 GXET064M45
         K23T01T KC2023 10 06.97962900 49 00.16 +05 54 11.3          19.4 GXET064595
         K23T01T IC2023 10 06.99165100 48 56.54 +05 53 45.4                XET064595
         K23T01T KC2023 10 07.00366900 48 52.82 +05 53 20.1          19.3 GXET064595
    
    Observer details:
    595 Farra d'Isonzo.  Observer E. Pettarin.  0.61-m f/4.5 reflector + CCD.
    654 Table Mountain Observatory, Wrightwood-PHMC.  Observers N. Evans, P. Choi,
        N. Saini, C. Zhai, R. Trahan, M. Shao.  1.0-m Reflector + CCD.
    858 Tebbutt Observatory, Edgewood.  Observer F. B. Zoltowski.  0.51-m f/8.1
        Schmidt-Cassegrain + CCD.
    C95 SATINO Remote Observatory, Haute Provence.  Observers D. Husar, K. Meo.
        Measurer D. Husar.  0.30-m f/5.8 reflector + CMO.
    F51 Pan-STARRS 1, Haleakala.  Observers J. Bulger, K. Chambers, T. Lowe, P.
        Minguez, A. Schultz, I. Smith.  Measurers S. Chastel, J. Fairlamb, M.
        Huber, Y. Ramanjooloo, R. Wainscoat, R. Weryk.  1.8-m Ritchey-Chretien +
        CCD.
    F52 Pan-STARRS 2, Haleakala.  Observers J. Bulger, T. Lowe, P. Minguez, A.
        Schultz, I. Smith.  Measurers K. Chambers, T. de Boer, J. Bulger, J.
        Fairlamb, H. Gao, M. Huber, C.-C. Lin, T. Lowe, E. Magnier, P. Minguez, Y.
        Ramanjooloo, A. Schultz, I. Smith, R. Wainscoat, R. Weryk.  1.8-m Ritchey-
        Chretien + CCD.
    G96 Mt. Lemmon Survey.  Observer G. J. Leonard.  Measurers E. C. Beshore, D.
        Fay, J. B. Fazekas, D. C. Fuls, A. R. Gibbs, A. D. Grauer, H. Groeller, J.
        K. Hogan, R. A. Kowalski, S. M. Larson, G. J. Leonard, D. Rankin, R. L.
        Seaman, F. C. Shelly, K. W. Wierzchos.  1.5-m reflector + 10K CCD.
    I93 St Pardon de Conques.  Observer F. Losse.  0.40-m f/3.7 reflector + CMO.
    L01 Visnjan Observatory, Tican.  Observer K. Korlevic.  1.0-m f/2.9 reflector
        + CCD.
    M45 Starhopper Observatory, Sfantu Gheorghe.  Observer F. Ursache.  0.41-m
        f/7.5 reflector + CMO.
    
    Orbital elements:
    2023 TT1                                            PHA, Earth MOID = 0.0057 AU
    Epoch 2023 Sept. 13.0 TT = JDT 2460200.5                Veres                   
    M 320.53203              (2000.0)            P               Q                  
    n   0.45023853     Peri.  304.33866     -0.77398029     -0.63311730             
    a   1.6859354      Node   196.38951     +0.59282351     -0.71850688             
    e   0.7804053      Incl.    2.19700     +0.22251923     -0.28794159             
    P   2.19           H   21.93          G   0.15           U   9                  
    Residuals in seconds of arc
    231004 F52  0.0   0.1-    231005 858  0.2-  0.2+    231005 C95  0.7+  0.1-
    231004 F52  0.3+  0.0     231005 654  0.0   0.0     231005 C95  0.5+  0.2+
    231004 F52  0.1+  0.0     231005 858  0.3-  0.0     231005 C95  0.4+  0.1+
    231005 I93  0.5+  0.1+    231005 G96  0.2-  0.1-    231006 M45  0.2-  0.1+
    231005 I93  0.1+  0.3+    231005 G96  0.0   0.0     231006 M45  0.1-  0.3+
    231005 I93  0.6-  0.1+    231005 G96  0.1-  0.1-    231006 M45  0.4-  0.2-
    231005 L01  0.0   0.4+    231005 G96  0.0   0.0     231006 595  0.7+  0.8+
    231005 L01  0.0   0.2+    231005 654  0.0   0.0     231006 595  0.9+  0.4+
    231005 L01  0.4-  0.0     231005 654  0.1+  0.1-    231007 595  0.4-  0.7+
    231005 858  0.1-  0.0     231005 F51  0.0   0.0
    231005 654  0.1+  0.0     231005 F51  0.0   0.0
    
    Ephemeris:
    2023 TT1                 a,e,i = 1.69, 0.78, 2                   q = 0.3702
    Date    TT    R. A. (2000) Decl.     Delta      r    Elong.  Phase     V
    2023 09 07    01 36 49.9 +11 26 19   0.7207  1.6129   137.2    25.1    23.4
    ...
    2023 09 22    01 28 18.6 +10 28 59   0.4717  1.4431   154.1    17.7    22.0
    ...
    2023 09 30    01 13 50.5 +08 50 34   0.3518  1.3455   165.8    10.5    21.0
    ...
    2023 10 06    00 53 33.4 +06 27 23   0.2692  1.2689   177.3     2.2    19.8
    2023 10 07    00 48 54.6 +05 53 51   0.2562  1.2559   179.3     0.6    19.6
    2023 10 08    00 43 46.9 +05 16 33   0.2434  1.2427   177.9     1.7    19.5
    ...
    2023 10 14    23 58 32.0 -00 20 14   0.1735  1.1618   159.5    17.5    19.4
    ...
    2023 10 22    21 43 11.0 -15 52 33   0.1147  1.0486   114.7    59.6    19.5
    ...
    2023 11 06    16 37 46.9 -25 07 31   0.2027  0.8192    28.6   144.6    25.5
    
    M. P. C. Staff               (C) Copyright 2023 MPC           M.P.E.C. 2023-T64
    


    Read MPEC 2023-T63 Read MPEC 2023-T65


    MPEC number:

    Enter an MPEC number in one of the following forms:

    • 1997-B01 (the full form)
    • J97B01 (the packed version of the full form)
    • B01 (the abbreviated form)